Find Kosmos-828

NORAD ID: 8892 Int'l Des: 1976-054 Owner: GUKOSR Country: SU operational
LEOCIRCULAR

实时位置

正在加载3D地球...

关于 Kosmos-828

正在加载描述...

即将过境

Passes for default location (London). Set your location on the main map for personalized predictions.

高度历史

Loading altitude history...

两行轨道根数

1 8892U 76054D 26105.84486898 .00000006 00000-0 13898-3 0 9996
2 8892 74.0013 322.9734 0035898 136.6241 235.1433 12.50987189275702
Epoch: Apr 15, 2026 • Age: 9 hours

当前状态

高度 1507.4 km
速度 7.10 km/s
星下点 -50.65°S, 14.84°E
类型 other

Most Searched